Big Bear Station Historical Data
Daily Summary for August 25, 2017 Units:  English    Metric   Both
« Previous Day
Next Day »
Daily Weekly Monthly Yearly Custom
  High: Low: Average:
Temperature: 87.1 °F 51.3 °F 66.4 °F
Dew Point: 53.7 °F 34.2 °F 46.2 °F
Humidity: 84 % 24 % 53 %
Wind Speed: 6.8 mph 0.0 mph 1.2 mph
Wind Gust: -999.0 mph - -
Wind:- - SSW
Pressure: 30.26 in 30.17 in -
Precipitation: 0.00 in    
Historical Graphs
 
 
Tabular Data for August 25, 2017
Time Temperature Dew Point Pressure Wind Wind Speed Wind Gust Humidity Rainfall Rate (Hourly)
00:03 54.9 °F 44.9 °F 30.18 in Calm   -999.0 mph 69 % 0 in
00:18 54.5 °F 43.8 °F 30.18 in Calm   -999.0 mph 67 % 0 in
00:33 54.1 °F 41.4 °F 30.18 in Calm   -999.0 mph 62 % 0 in
00:48 53.8 °F 41.9 °F 30.18 in Calm   -999.0 mph 64 % 0 in
01:04 53.4 °F 41.9 °F 30.17 in Calm   -999.0 mph 65 % 0 in
01:19 52.9 °F 43.4 °F 30.17 in Calm   -999.0 mph 70 % 0 in
01:34 52.9 °F 44.5 °F 30.17 in Calm   -999.0 mph 73 % 0 in
01:49 52.7 °F 44.3 °F 30.17 in Calm   -999.0 mph 73 % 0 in
02:04 52.3 °F 43.5 °F 30.17 in Calm   -999.0 mph 72 % 0 in
02:20 52.2 °F 43.4 °F 30.17 in South 1.7 mph -999.0 mph 72 % 0 in
02:35 52.0 °F 42.9 °F 30.17 in Calm   -999.0 mph 71 % 0 in
02:50 51.6 °F 42.5 °F 30.17 in Calm   -999.0 mph 71 % 0 in
03:05 51.6 °F 42.5 °F 30.17 in Calm   -999.0 mph 71 % 0 in
03:20 51.6 °F 43.6 °F 30.17 in SSE 1.7 mph -999.0 mph 74 % 0 in
03:36 51.6 °F 44.3 °F 30.17 in Calm   -999.0 mph 76 % 0 in
03:51 51.6 °F 44.3 °F 30.17 in Calm   -999.0 mph 76 % 0 in
04:06 51.6 °F 44.6 °F 30.17 in Calm   -999.0 mph 77 % 0 in
04:21 51.4 °F 44.8 °F 30.17 in Calm   -999.0 mph 78 % 0 in
04:36 51.3 °F 45.7 °F 30.17 in SSE 2.2 mph -999.0 mph 81 % 0 in
04:52 51.8 °F 46.2 °F 30.17 in Calm   -999.0 mph 81 % 0 in
05:07 51.6 °F 46.0 °F 30.17 in Calm   -999.0 mph 81 % 0 in
05:22 51.6 °F 46.3 °F 30.17 in Calm   -999.0 mph 82 % 0 in
05:38 51.8 °F 46.8 °F 30.17 in SSW 2.2 mph -999.0 mph 83 % 0 in
05:53 52.0 °F 47.0 °F 30.17 in SSE 1.7 mph -999.0 mph 83 % 0 in
06:08 51.6 °F 46.6 °F 30.18 in Calm   -999.0 mph 83 % 0 in
06:23 51.8 °F 46.8 °F 30.18 in Calm   -999.0 mph 83 % 0 in
06:39 52.2 °F 47.5 °F 30.19 in Calm   -999.0 mph 84 % 0 in
06:54 52.3 °F 47.3 °F 30.19 in Calm   -999.0 mph 83 % 0 in
07:09 53.2 °F 48.2 °F 30.19 in Calm   -999.0 mph 83 % 0 in
07:24 53.8 °F 49.1 °F 30.20 in Calm   -999.0 mph 84 % 0 in
07:40 54.1 °F 49.4 °F 30.20 in Calm   -999.0 mph 84 % 0 in
07:55 55.6 °F 50.8 °F 30.20 in Calm   -999.0 mph 84 % 0 in
08:10 57.6 °F 52.8 °F 30.20 in Calm   -999.0 mph 84 % 0 in
08:25 60.3 °F 53.1 °F 30.20 in West 2.7 mph -999.0 mph 77 % 0 in
08:40 64.6 °F 52.6 °F 30.20 in SE 2.2 mph -999.0 mph 65 % 0 in
08:56 67.5 °F 51.7 °F 30.21 in SSW 1.7 mph -999.0 mph 57 % 0 in
09:11 69.3 °F 51.9 °F 30.20 in ENE 2.7 mph -999.0 mph 54 % 0 in
09:26 70.5 °F 51.0 °F 30.20 in ENE 2.2 mph -999.0 mph 50 % 0 in
09:42 71.6 °F 50.3 °F 30.20 in Calm   -999.0 mph 47 % 0 in
09:57 72.3 °F 50.4 °F 30.21 in NW 3.7 mph -999.0 mph 46 % 0 in
10:12 73.6 °F 51.0 °F 30.21 in West 3.2 mph -999.0 mph 45 % 0 in
10:27 74.5 °F 49.3 °F 30.21 in North 2.2 mph -999.0 mph 41 % 0 in
10:42 76.3 °F 50.2 °F 30.21 in ENE 3.7 mph -999.0 mph 40 % 0 in
10:58 77.4 °F 49.8 °F 30.21 in NNW 3.7 mph -999.0 mph 38 % 0 in
11:13 79.2 °F 50.7 °F 30.21 in ESE 4.2 mph -999.0 mph 37 % 0 in
11:28 80.4 °F 51.0 °F 30.21 in NW 2.7 mph -999.0 mph 36 % 0 in
11:44 81.7 °F 50.6 °F 30.21 in South 3.2 mph -999.0 mph 34 % 0 in
11:59 82.9 °F 49.2 °F 30.21 in Calm   -999.0 mph 31 % 0 in
12:14 83.3 °F 49.5 °F 30.21 in NNE 3.2 mph -999.0 mph 31 % 0 in
12:29 83.7 °F 48.1 °F 30.20 in West 1.7 mph -999.0 mph 29 % 0 in
12:45 85.8 °F 48.0 °F 30.20 in SSE 2.7 mph -999.0 mph 27 % 0 in
13:00 84.2 °F 47.6 °F 30.20 in South 6.3 mph -999.0 mph 28 % 0 in
13:16 85.1 °F 47.4 °F 30.20 in South 1.7 mph -999.0 mph 27 % 0 in
13:31 85.1 °F 47.4 °F 30.20 in South 6.8 mph -999.0 mph 27 % 0 in
13:46 83.5 °F 46.0 °F 30.20 in NNE 2.7 mph -999.0 mph 27 % 0 in
14:01 87.1 °F 48.1 °F 30.20 in SSW 2.2 mph -999.0 mph 26 % 0 in
14:17 81.9 °F 45.6 °F 30.20 in Calm   -999.0 mph 28 % 0 in
14:32 84.9 °F 45.2 °F 30.19 in WNW 3.7 mph -999.0 mph 25 % 0 in
14:47 86.2 °F 46.3 °F 30.19 in NNW 3.2 mph -999.0 mph 25 % 0 in
15:02 82.0 °F 44.7 °F 30.19 in SW 4.7 mph -999.0 mph 27 % 0 in
15:17 80.2 °F 44.1 °F 30.19 in SSE 1.7 mph -999.0 mph 28 % 0 in
15:33 79.7 °F 45.5 °F 30.19 in Calm   -999.0 mph 30 % 0 in
15:48 80.2 °F 44.1 °F 30.19 in ESE 2.7 mph -999.0 mph 28 % 0 in
16:03 78.3 °F 48.4 °F 30.19 in WNW 2.7 mph -999.0 mph 35 % 0 in
16:18 77.4 °F 51.9 °F 30.19 in NNW 3.2 mph -999.0 mph 41 % 0 in
16:33 75.6 °F 52.2 °F 30.19 in NNE 2.7 mph -999.0 mph 44 % 0 in
16:49 75.4 °F 50.7 °F 30.19 in NW 1.1 mph -999.0 mph 42 % 0 in
17:04 79.2 °F 50.0 °F 30.19 in Calm   -999.0 mph 36 % 0 in
17:19 83.3 °F 46.8 °F 30.19 in Calm   -999.0 mph 28 % 0 in
17:34 85.3 °F 44.4 °F 30.19 in SSE 2.2 mph -999.0 mph 24 % 0 in
17:49 85.8 °F 47.0 °F 30.19 in SSW 2.7 mph -999.0 mph 26 % 0 in
18:05 84.7 °F 46.0 °F 30.19 in SW 1.1 mph -999.0 mph 26 % 0 in
18:20 85.1 °F 48.3 °F 30.20 in NW 5.3 mph -999.0 mph 28 % 0 in
18:35 80.2 °F 53.7 °F 30.20 in Calm   -999.0 mph 40 % 0 in
18:50 77.5 °F 47.7 °F 30.20 in Calm   -999.0 mph 35 % 0 in
19:06 74.7 °F 50.1 °F 30.20 in Calm   -999.0 mph 42 % 0 in
19:21 72.7 °F 44.9 °F 30.20 in SW 1.1 mph -999.0 mph 37 % 0 in
19:36 70.3 °F 43.5 °F 30.21 in Calm   -999.0 mph 38 % 0 in
19:51 68.7 °F 43.4 °F 30.21 in Calm   -999.0 mph 40 % 0 in
20:06 67.3 °F 44.0 °F 30.21 in Calm   -999.0 mph 43 % 0 in
20:37 64.8 °F 43.0 °F 30.22 in Calm   -999.0 mph 45 % 0 in
20:52 63.9 °F 42.7 °F 30.23 in Calm   -999.0 mph 46 % 0 in
21:07 62.6 °F 42.6 °F 30.24 in Calm   -999.0 mph 48 % 0 in
21:22 62.1 °F 43.2 °F 30.24 in Calm   -999.0 mph 50 % 0 in
21:38 60.8 °F 43.1 °F 30.24 in Calm   -999.0 mph 52 % 0 in
21:53 59.5 °F 42.4 °F 30.24 in Calm   -999.0 mph 53 % 0 in
22:08 59.0 °F 42.4 °F 30.25 in Calm   -999.0 mph 54 % 0 in
22:23 58.3 °F 41.2 °F 30.25 in Calm   -999.0 mph 53 % 0 in
22:38 57.2 °F 40.7 °F 30.25 in Calm   -999.0 mph 54 % 0 in
22:54 56.5 °F 41.9 °F 30.25 in Calm   -999.0 mph 58 % 0 in
23:09 55.8 °F 42.1 °F 30.25 in Calm   -999.0 mph 60 % 0 in
23:24 55.0 °F 37.7 °F 30.25 in Calm   -999.0 mph 52 % 0 in
23:39 54.5 °F 37.2 °F 30.26 in Calm   -999.0 mph 52 % 0 in
23:54 54.0 °F 34.2 °F 30.25 in Calm   -999.0 mph 47 % 0 in
Big Bear CA Weather
Compliments of Weather Underground - 1.5 mb